Location: Bats
(43.6587°N, 0.4584°W)
Time: 20:48:43
(UTC+00:00)

USA 267 - Pass Details

Date: 12 January 2026
Orbit: 1101 x 1107 km, 123.0° (Epoch: 10 January)

Event Time Altitude Azimuth Distance (km) Brightness Sun altitude
Exits shadow 20:33:34 41° 266° (W) 1,556 4.3 -40.3°
Drops below altitude 10° 20:38:16 10° 302° (WNW) 2,964 6.1 -41.2°
Sets 20:40:52 0° 308° (NW) 3,924 6.8 -41.6°
